Location: Ferintosh
(52.7647°N, 112.9692°W)
Time: 17:48:21
(UTC+00:00)

Explorer 7 - Pass Details

Date: 22 May 2024
Orbit: 466 x 622 km, 50.3° (Epoch: 15 June)

Event Time Altitude Azimuth Distance (km) Brightness Sun altitude
Rises 12:55:18 0° 275° (W) 2,721 9.8 11.4°
Reaches altitude 10° 12:59:03 10° 240° (WSW) 1,868 9.0 11.9°
Maximum altitude 13:00:21 11° 222° (SW) 1,803 9.0 12.1°
Drops below altitude 10° 13:01:39 10° 205° (SSW) 1,894 9.2 12.3°
Sets 13:05:33 0° 171° (S) 2,829 10.4 12.9°
